Regional Weather Roundup
Issued by NWS

Home | Current Version | Previous Version | Text Only | Print | Product List | Glossary On
Versions: 1 2 3 4 5 6 7 8 9 10 11 12 13 14 15 16 17 18 19 20 21 22 23 24 25 26 27 28 29 30 31 32 33 34 35 36 37 38 39 40 41 42 43 44 45 46 47 48 49 50
619
ASUS43 KTOP 290208
RWRKS

WEATHER ROUNDUP FOR KANSAS
NATIONAL WEATHER SERVICE GOODLAND KS
900 PM CDT WED JUN 28 2017

NOTE:  "FAIR" INDICATES FEW OR NO CLOUDS BELOW 12,000 FEET WITH NO
SIGNIFICANT WEATHER AND/OR OBSTRUCTIONS TO VISIBILITY.

KSZ001>006-013>018-027>032-041>047-290300-
NORTHWEST KANSAS

CITY           SKY/WX    TMP DP  RH WIND       PRES   REMARKS
GOODLAND       PTCLDY    75  58  55 E8        29.78S
HAYS           CLEAR     86  66  51 SE14      29.67
HILL CITY      CLEAR     82  68  62 NE8       29.71R
RUSSELL        MOCLDY    87  63  44 SE10      29.67R
$$

KSZ061>065-074>080-084>089-290300-
SOUTHWEST KANSAS

CITY           SKY/WX    TMP DP  RH WIND       PRES   REMARKS
DODGE CITY     CLEAR     87  61  41 S14       29.70R
ELKHART          N/A     81  55  40 SE6         N/A
GARDEN CITY    CLEAR     85  59  41 S5        29.69S
GREAT BEND     PTCLDY    87  63  44 S17       29.69R
LIBERAL        CLEAR     89  62  40 S18       29.71R
PRATT          CLEAR     85  59  41 S18G29    29.73R
$$

KSZ066>073-081>083-090>101-290300-
SOUTHEAST KANSAS

CITY           SKY/WX    TMP DP  RH WIND       PRES   REMARKS
CHANUTE        PTCLDY    82  68  62 S14       29.80R
COFFEYVILLE    PTCLDY    83  68  60 S12       29.80R
HUTCHINSON     CLEAR     88  61  40 S21G29    29.71R
MEDICINE LODGE   N/A     87  62  43 S20G28    29.72R
NEWTON         CLEAR     84  66  54 S18       29.74R
PARSONS        PTCLDY    82  68  62 S7        29.82R
WICHITA INTL   PTCLDY    86  65  49 S17G31    29.73S
WICHITA JABRA  CLEAR     84  66  54 S15       29.74S
WICHITA MCCONL CLEAR     85  65  51 S17       29.75S
WINFIELD       CLEAR     82  67  60 S9        29.78R
$$

KSZ007>012-019>026-033>040-048>060-102>105-290300-
NORTHEAST KANSAS

CITY           SKY/WX    TMP DP  RH WIND       PRES   REMARKS
CONCORDIA      CLEAR     85  66  53 S7        29.67S
EMPORIA        CLEAR     82  68  62 S18G28    29.75R
LAWRENCE       PTCLDY    84  70  62 S12G21    29.72R
MANHATTAN      CLEAR     87  67  51 S15G23    29.68S
MARYSVILLE     CLOUDY    86  70  58 S9        29.69R
OLATHE IND     CLEAR     82  69  64 S16G25    29.77S
OLATHE EXE     CLEAR     81  70  69 S17       29.76F
SALINA         CLEAR     91  61  36 S13       29.68R
TOPEKA BILLARD CLEAR     85  69  58 S16G23    29.71R
TOPEKA FORBES  CLEAR     85  69  58 S16       29.72R
$$




USA.gov is the U.S. government's official web portal to all federal, state and local government web resources and services.